View from above orbital plane
|
View from above satellite
|
Ground track
|
The orbit data is extracted from the following two-line orbital elements,
1 40074U 14037F 22220.21803044 .00000819 00000-0 10166-3 0 9995
2 40074 98.3757 103.5829 0005292 112.5208 247.6546 14.85544319437755
Epoch (UTC): | 08 August 2022 05:13:57 |
Eccentricity: | 0.0005292 |
inclination: | 98.3757° |
perigee height: | 608 km |
apogee height: | 615 km |
right ascension of ascending node: | 103.5829° |
argument of perigee: | 112.5208° |
revolutions per day: | 14.85544319 |
mean anomaly at epoch: | 247.6546° |
orbit number at epoch: | 43775 |
The dashed part of the orbit path shows where the satellite is in the earth's shadow,
|
|